Santa Fe, NM

9:34 PM MDT on May 28, 2017 (GMT -0600)
Santa Fe Municipal

Weather History for KSAF - January, 2013

Change the Weather History Date:

Tuesday, January 8, 2013

  Actual Average Record
Temperature  
Mean Temperature 29 °F -  
Max Temperature 44 °F 0 °F 60 °F (2002)
Min Temperature 14 °F - 5 °F (1997)
Degree Days  
Heating Degree Days 36    
Moisture  
Dew Point 9 °F    
Average Humidity 48    
Maximum Humidity 67    
Minimum Humidity 22    
Precipitation  
Precipitation 0.00 in - - ()
Sea Level Pressure  
Sea Level Pressure 30.07 in    
Wind  
Wind Speed 13 mph (North)    
Max Wind Speed 21 mph    
Max Gust Speed 29 mph    
Visibility 10 miles    
Events      
Averages and records for this station are not official NWS values.
T = Trace of Precipitation, MM = Missing Value Source: NWS Daily Summary

Daily Weather History Graph

Daily Weather History Graph

Search for Another Location

Airport or City:

Trip Planner

Search our weather history database for the weather conditions in past years. The results will help you decide how hot, cold, wet, or windy it might be!

Date:

Astronomy

Jan. 08, 2013 Rise Set
Actual Time 7:14 AM MST 5:08 PM MST
Civil Twilight 6:46 AM MST 5:36 PM MST
Nautical Twilight 6:14 AM MST 6:07 PM MST
Astronomical Twilight 5:43 AM MST 6:38 PM MST
Moon 3:51 AM MST (1/8) 2:12 PM MST (1/8)
Length of Visible Light 10h 49m
Length of Day
9h 53m
Waning Crescent, 13% of the Moon is Illuminated
Jan 8
Waning Crescent
Jan 11
New
Jan 18
First Quarter
Jan 26
Full
Feb 3
Last Quarter

Hourly Weather History & Observations

Time (MST) Temp. Windchill Dew Point Humidity Pressure Visibility Wind Dir Wind Speed Gust Speed Precip Events Conditions
12:53 AM 19.0 °F 5.6 °F 7.0 °F 59% 29.98 in 10.0 mi North 13.8 mph - N/A   Clear
1:53 AM 18.0 °F 2.2 °F 7.0 °F 62% 29.98 in 10.0 mi North 18.4 mph 25.3 mph N/A   Clear
2:53 AM 17.1 °F 3.6 °F 7.0 °F 65% 29.97 in 10.0 mi NNW 12.7 mph - N/A   Clear
3:53 AM 14.0 °F 1.2 °F 5.0 °F 67% 29.98 in 10.0 mi North 10.4 mph - N/A   Clear
4:53 AM 14.0 °F -2.0 °F 5.0 °F 67% 29.98 in 10.0 mi North 16.1 mph 21.9 mph N/A   Clear
5:53 AM 15.1 °F 6.4 °F 5.0 °F 64% 30.02 in 10.0 mi North 5.8 mph - N/A   Clear
6:53 AM 14.0 °F -2.5 °F 5.0 °F 67% 30.07 in 10.0 mi North 17.3 mph - N/A   Clear
7:53 AM 18.0 °F 7.7 °F 5.0 °F 57% 30.07 in 10.0 mi North 8.1 mph - N/A   Clear
8:53 AM 19.0 °F 6.1 °F 6.1 °F 57% 30.12 in 10.0 mi North 12.7 mph - N/A   Clear
9:53 AM 25.0 °F 12.2 °F 7.0 °F 46% 30.08 in 10.0 mi North 16.1 mph 24.2 mph N/A   Clear
10:53 AM 30.0 °F 17.5 °F 9.0 °F 41% 30.03 in 10.0 mi North 19.6 mph 28.8 mph N/A   Clear
11:53 AM 36.0 °F 29.0 °F 10.0 °F 34% 30.00 in 10.0 mi NW 9.2 mph - N/A   Clear
12:53 PM 39.0 °F 32.8 °F 10.0 °F 30% 29.98 in 10.0 mi NNW 9.2 mph - N/A   Clear
1:53 PM 44.1 °F 35.9 °F 7.0 °F 22% 29.97 in 10.0 mi NNW 19.6 mph 26.5 mph N/A   Clear
2:53 PM 44.1 °F 37.1 °F 12.0 °F 27% 29.99 in 10.0 mi North 15.0 mph - N/A   Clear
3:53 PM 44.1 °F 39.5 °F 12.0 °F 27% 30.03 in 10.0 mi NNW 8.1 mph - N/A   Clear
4:53 PM 39.9 °F 30.2 °F 12.0 °F 32% 30.06 in 10.0 mi North 20.7 mph 27.6 mph N/A   Clear
5:53 PM 35.1 °F 25.9 °F 12.9 °F 40% 30.12 in 10.0 mi North 13.8 mph - N/A   Clear
6:53 PM 33.1 °F 25.5 °F 12.0 °F 42% 30.18 in 10.0 mi NE 9.2 mph - N/A   Clear
7:53 PM 28.0 °F 18.1 °F 10.9 °F 49% 30.20 in 10.0 mi North 11.5 mph - N/A   Clear
8:53 PM 27.0 °F 18.7 °F 10.9 °F 51% 30.24 in 10.0 mi North 8.1 mph - N/A   Clear
10:53 PM 26.1 °F 15.6 °F 10.0 °F 51% 30.26 in 10.0 mi NNE 11.5 mph - N/A   Clear
11:53 PM 24.1 °F 14.4 °F 10.0 °F 55% 30.26 in 10.0 mi NNE 9.2 mph - N/A   Clear